Wind_Speed
29 27 27 24 23 24 23 21 19 17 16 15 15 17 19 15 15 16 16 16 16 16 17 17 18 18 18 18 18 18 18 19 19
29 29 27 25 24 23 22 20 17 15 14 15 17 19 16 14 15 16 16 16 16 15 15 16 17 17 17 17 17 17 18 17 17
30 29 27 26 24 22 20 18 16 14 15 17 20 20 17 14 15 15 16 16 15 15 15 15 15 15 16 15 15 15 15 16 16
29 28 27 27 24 21 19 17 15 15 17 19 20 17 17 13 14 14 14 15 14 13 13 14 14 14 14 14 14 14 14 14 14
28 28 26 26 24 21 18 16 15 17 18 19 19 20 16 13 13 13 14 14 13 13 12 13 13 13 13 12 12 12 12 12 12
27 23 26 24 24 22 18 16 17 18 18 19 17 13 11 11 12 12 14 12 12 12 11 11 11 11 11 11 10 10 11 10 10
25 24 26 24 23 20 17 17 18 15 16 18 12 9 11 10 11 12 13 12 11 10 10 10 10 10 9 9 8 8 8 8 9
27 26 24 23 21 17 17 20 15 13 13 10 8 10 10 9 11 12 12 11 10 9 9 8 8 8 7 7 7 7 7 7 7
26 26 24 22 21 18 18 15 13 13 12 10 11 10 9 9 9 10 11 10 9 8 8 7 7 6 6 5 5 5 5 5 5
26 26 25 23 22 20 19 15 15 13 12 11 10 9 9 9 9 8 10 9 8 8 7 6 6 5 5 4 3 3 3 3 3
26 26 26 24 22 20 18 16 15 14 12 10 9 8 8 8 7 6 7 8 7 7 7 7 6 6 5 4 3 2 2 1 1
26 24 26 23 21 20 18 16 14 13 11 10 9 8 7 7 6 7 6 7 8 8 9 9 8 7 6 6 4 2 2 1 1
24 27 23 23 21 20 18 17 15 13 11 10 9 8 7 7 7 7 8 8 7 9 10 11 10 10 9 8 7 4 4 3 2
24 34 25 24 21 19 17 16 15 13 11 9 7 6 7 7 8 9 9 9 10 9 11 12 12 13 12 12 11 10 8 7 6
28 30 25 23 20 18 17 16 13 12 10 7 6 7 7 8 9 9 10 10 11 11 10 11 15 16 15 14 13 13 14 14 14
30 28 26 23 20 18 18 16 14 10 8 6 6 8 9 9 9 10 10 10 11 12 13 13 13 13 13 17 17 16 15 14 13
29 26 25 24 20 19 18 16 13 11 10 5 1 2 7 9 10 10 9 9 10 12 13 14 14 13 12 14 14 17 18 18 15
27 27 25 24 20 20 18 16 13 10 9 7 2 1 0 2 8 6 5 6 7 9 12 15 14 15 13 13 11 16 16 16 16
28 25 25 24 20 18 17 15 13 9 10 6 7 3 5 2 3 6 6 4 5 8 10 14 18 18 16 11 15 14 12 12 12
28 27 24 23 20 17 17 17 14 10 7 6 5 5 2 7 6 5 8 11 7 11 13 13 11 13 13 15 15 12 12 9 8
Wind_Direction
152 151 150 153 149 142 140 133 123 122 127 129 127 114 102 97 99 99 98 98 100 98 95 93 92 90 89 87 83 83 82 79 78
155 157 157 155 151 144 140 129 130 130 131 131 126 118 109 109 104 102 102 102 102 100 97 95 93 91 89 86 85 84 81 78 79
163 162 158 156 151 145 139 129 132 133 132 129 127 115 110 108 106 105 107 109 106 103 100 97 95 93 90 88 85 82 81 81 77
168 163 160 157 152 147 143 132 137 137 133 132 127 119 109 111 109 108 109 111 108 105 103 99 95 93 90 89 87 85 82 79 79
166 165 163 160 154 151 150 145 143 140 136 134 126 115 109 111 109 109 116 114 111 109 106 103 100 98 96 92 90 88 86 82 80
162 157 163 161 159 157 151 150 145 142 137 131 120 114 120 115 113 116 123 118 118 115 113 109 109 106 103 100 99 96 93 89 87
158 166 161 157 157 156 153 152 143 132 136 132 118 122 125 117 116 126 128 125 125 124 122 120 116 113 110 107 103 99 97 93 87
160 160 159 160 156 148 151 148 141 153 151 150 141 137 127 124 123 137 135 133 133 132 129 127 124 122 120 116 111 104 97 92 89
153 161 162 160 158 158 159 161 162 160 158 152 146 142 135 133 132 144 142 140 140 141 141 142 140 134 130 126 113 104 98 92 88
162 166 165 167 168 166 169 168 162 160 158 154 149 147 143 140 139 152 155 155 155 160 160 162 159 157 151 141 128 117 104 96 97
167 171 169 170 169 170 172 169 167 162 159 157 156 154 152 153 152 164 168 174 176 179 182 184 187 186 184 183 170 155 149 137 131
160 173 168 171 170 171 171 168 166 165 164 168 172 171 173 171 170 174 203 208 202 202 201 203 204 206 208 213 209 189 197 222 245
162 169 170 166 171 172 171 171 170 170 169 172 177 184 191 197 198 202 202 214 229 234 222 216 219 219 216 221 227 222 220 228 265
172 173 176 170 170 174 174 176 174 175 179 176 183 195 205 212 218 222 225 227 223 237 256 245 234 233 230 228 231 237 245 252 265
174 174 180 173 170 175 182 180 179 182 181 185 198 217 225 226 232 237 238 239 242 243 244 261 250 244 244 244 239 244 252 260 266
174 177 177 175 175 180 181 179 182 184 176 183 214 236 237 241 242 244 244 244 245 247 247 243 249 260 267 258 253 251 257 267 271
174 173 173 179 179 185 183 180 182 181 181 183 296 251 195 228 239 237 242 249 252 253 252 249 247 247 259 272 268 259 257 262 268
178 172 176 179 181 183 184 183 182 178 182 196 269 181 27 352 169 191 220 249 251 255 253 246 246 249 249 258 265 266 262 267 271
176 174 176 178 180 176 181 182 187 178 173 174 213 249 344 339 314 170 218 217 266 255 280 250 246 240 241 250 246 258 267 273 276
176 176 178 175 175 175 179 183 183 188 183 174 154 202 256 255 236 277 301 311 286 285 280 267 239 222 230 239 253 259 261 275 286
Height
808 812 814 818 820 823 824 826 829 831 833 834 836 838 839 840 841 843 844 845 846 848 848 849 849 849 849 850 850 849 849 849 848
809 812 815 819 822 825 827 828 831 833 834 836 838 840 840 843 844 846 847 848 849 850 851 852 852 853 853 853 853 853 853 853 852
810 813 817 820 824 827 829 831 832 834 836 838 841 842 843 845 846 848 849 850 852 853 854 854 855 855 856 856 857 857 856 856 856
812 815 818 821 825 828 831 833 834 836 837 840 843 844 845 848 849 851 852 853 854 856 856 857 858 858 859 859 859 859 859 859 859
813 817 821 823 826 829 832 835 836 838 840 842 844 847 848 850 851 853 854 855 856 857 859 859 859 860 860 861 861 861 861 861 861
815 819 822 825 827 830 833 836 838 840 842 845 846 847 850 852 853 854 856 857 858 858 860 860 860 860 861 862 862 862 862 862 862
815 819 823 826 829 832 835 838 840 844 844 847 848 850 852 853 855 855 856 858 859 859 860 861 861 862 862 863 863 864 863 863 863
814 819 824 827 830 834 837 840 842 846 847 847 850 851 853 855 856 856 857 859 860 861 861 862 862 862 863 863 864 864 864 865 864
813 819 823 827 830 835 838 841 843 845 847 849 851 852 854 856 857 857 858 859 861 861 862 862 863 863 864 864 865 865 865 865 866
812 817 821 826 830 834 838 840 843 845 848 849 851 853 854 856 857 857 858 859 860 861 862 863 863 864 864 864 864 865 865 865 865
810 815 820 824 828 833 837 840 843 845 848 850 852 854 855 856 858 858 858 859 860 861 862 863 863 864 864 864 864 864 865 865 865
808 814 819 823 828 833 836 840 843 845 847 849 852 853 855 857 858 859 858 859 859 860 861 862 862 863 864 863 864 864 865 865 865
807 813 817 822 828 832 836 839 841 844 846 848 851 853 854 856 857 858 859 860 859 860 860 861 861 861 862 863 864 864 864 865 865
806 812 817 822 826 831 835 839 841 844 845 848 850 852 854 855 856 857 858 858 859 860 859 860 861 861 862 862 862 863 863 864 864
804 810 816 820 825 830 834 838 840 843 845 847 849 851 852 853 854 855 856 857 858 859 860 859 859 860 861 861 862 862 862 862 862
802 806 812 818 823 829 833 836 839 841 844 847 848 849 850 851 852 853 854 854 855 856 857 858 858 857 858 859 860 860 860 860 860
798 803 808 815 821 827 831 834 837 840 843 844 846 846 847 848 849 850 852 852 853 854 855 855 855 855 855 854 855 855 855 856 857
795 800 807 813 818 823 828 832 836 838 842 844 846 846 845 846 846 849 850 851 851 852 852 852 852 853 853 854 853 853 853 853 854
793 800 805 810 816 820 826 830 834 837 840 844 844 846 849 849 848 848 849 850 850 849 849 850 850 849 850 851 851 851 851 850 850
792 797 802 806 812 817 823 827 831 835 838 840 843 846 847 850 850 849 848 848 847 847 845 847 848 847 846 847 847 848 847 847 847